Location: Cruquius
(52.3348°N, 4.6319°E)
Time: 20:31:07
(UTC+00:00)

Meteor 2-9 Rocket - Pass Details

Date: 12 May 2021
Orbit: 791 x 895 km, 81.3° (Epoch: 20 June)

Event Time Altitude Azimuth Distance (km) Brightness Sun altitude
Rises 22:03:09 0° 347° (NNW) 3,509 9.1 -16.4°
Reaches altitude 10° 22:05:39 10° 350° (N) 2,556 8.0 -16.5°
Maximum altitude 22:11:28 72° 75° (ENE) 916 4.3 -16.8°
Enters shadow 22:14:35 28° 154° (SSE) 1,565 5.0 -17.0°
